Погода в Среднеколымске

Погода в Среднеколымске : погода сейчас, прогноз погоды и архив. Всё, что Вы хотите узнать о погоде в Среднеколымске!

Поиск расширенной информации на нашем сайте:

Другие новости

Новости СМИ2

Главная страница сайта

Новости сайта

03.07.2017

Напоминаем, что на нашем специализированном сайте Метеоцентр.Азия вы можете получить высокодетализированные автоматические прогнозы погоды по пунктам России, СНГ и мира в авиационном формате (включающие направление и скорость ветра, видимость, явления погоды, количество и форму облачности, нижнюю и верхнюю границу облачности).


Погода в Среднеколымске - сегодня

Время (UTC), дата Ветер
(°,м/с) 
Видим.   Явления Облачность Т
(°С)
Тd
(°С)
f(%) Тe
(°С)
Pmin
(гПа)
dP
(гПа)
Po
(мм)
O2
(г/м3)
Тmin Tmax R s Состояние
почвы
06 21.04.18 060 (СВ) 20000 м    3/0 верхняя 
[Ci fib]
+1 -6.5 57 -1  1014.7  -0.7  758  305           
12 21.04.18 050 (СВ) 20000 м    5/0 верхняя 
[Ci fib]
-4.4 -8.3 74 -6  1015.5  0.2  759  312           
15 21.04.18 040 (СВ) 20000 м    3/0 верхняя 
[Ci fib]
-8.8 -11.2 83 -9  1015.4  -0.2  758  317           
18 21.04.18 040 (СВ) 20000 м    8/8 1000 м 
[Sc]
-9.9 -11.1 91 -12  1015.9  0.5  759  318           
21 21.04.18 030 (СВ) 20000 м    6/4 1000 м верхняя 
[Sc|Ci fib]
-6.9 -10.7 74 -8  1016  0.2  759  315  -12      18  равномерный
мокрый или
старый снег
100% 
00 22.04.18 030 (СВ) 20000 м    10/5 1000 м верхняя 
[Sc|Ci fib]
-3.2 -8.3 68 -4  1016  759  310           
03 22.04.18 020 (С) 20000 м    8/8 1000 м 
[Sc]
+1.1 -6.3 58 1015.9  759  305           
06 22.04.18 040 (СВ) 20000 м    10/8 1000 м верхняя 
[Sc|Ci fib]
+2.2 -5.8 55 +2  1015.8  -0.1  759  304           
12 22.04.18 030 (СВ) 20000 м    10/3 1000 м верхняя 
[Sc|Ci fib]
-3.3 -7.6 72 -4  1017  0.5  760  311           
15 22.04.18 010 (С) 20000 м    10/0 средняя, верхняя 
[Ac trans|Ci fib]
-7.6 -10.7 78 -7  1017.3  0.3  760  316           
18 22.04.18 340 (С) 20000 м    10/0 средняя, верхняя 
[Ac trans|Ci fib]
-11.2 -11.8 95 -11  1017.5  0.1  760  320           
00 23.04.18 280 (З) 20000 м    3/0 верхняя 
[Ci fib]
-3.8 -10.5 60 -3  1017.5  -0.6  760  312           
03 23.04.18 310 (СЗ) 20000 м    ясно 
+0.7 -5 66 1016.4  -1  759  306           
06 23.04.18 320 (СЗ) 20000 м    ясно 
+3.4 -7.3 45 +4  1015.5  -0.9  759  303           
12 23.04.18 100 (В) 20000 м    4/0 верхняя 
[Ci fib]
-1.6 -8 62 -3  1014.4  -0.7  758  308           
15 23.04.18 тихо ()   20000 м    3/0 верхняя 
[Ci fib]
-7 -9.9 80 -7  1013.5  -1  757  314           
18 23.04.18 090 (В) 20000 м    3/0 верхняя 
[Ci fib]
-8.2 -11.4 78 -8  1011.9  -1.7  756  315           
21 23.04.18 070 (В) 20000 м    3/0 верхняя 
[Ci fib]
-2.5 -9 61 -2  1010.1  -1.6  755  308  -10.4      мокрый или
старый снег
50-90% 
00 24.04.18 050 (СВ) 20000 м    3/0 верхняя 
[Ci fib]
+2.9 -5.8 53 +2  1007.7  -2.3  753  301           
03 24.04.18 100 (В) 20000 м    3/0 верхняя 
[Ci fib]
+5.2 -5.3 47 +4  1004.7  -3  751  297           
06 24.04.18 110 (В) 20000 м    4/0 верхняя 
[Ci fib]
+5.6 -6.3 42 +5  1002.2  -2.5  749  296           
12 24.04.18 090 (В) 20000 м    4/0 верхняя 
[Ci fib]
-1 -6.7 65 -2  999.6  -1.3  747  303           
15 24.04.18 070 (В) 20000 м    4/0 верхняя 
[Ci fib]
-3.7 -8.1 71 -5  998.5  -1.1  746  306           
18 24.04.18 070 (В) 20000 м    3/0 верхняя 
[Ci fib]
-8.4 -10.7 83 -8  997.9  -0.7  745  311           
00 25.04.18 040 (СВ) 20000 м    3/0 верхняя 
[Ci fib]
+2.1 -6.7 52 +1  996.7  -0.8  745  298           
Время (UTC), дата Ветер
(°,м/с) 
Видим.   Явления Облачность Т
(°С)
Тd
(°С)
f(%) Тe
(°С)
Pmin
(гПа)
dP
(гПа)
Po
(мм)
O2
(г/м3)
Тmin Tmax R s Состояние
почвы

Для получения пояснительной информации подведите курсор к названию столбца.

ПОГОДА в Среднеколымске - архив

Всё, что Вы хотите узнать о погоде в Среднеколымске - удобно и подробно!

Выберите нужную дату (начиная с 1 января 2015* года) и нажмите кнопку "Найти".
Будут отображены архивные сводки погоды по пункту Среднеколымск, начиная с указанной даты.


Отображать данные в формате CSV (для использования в таблицах Excel)


Внимание! Наш архив погоды предназначен исключительно для личного некоммерческого использования в познавательных целях. Если Вам необходимы официальные справки о состоянии погоды (для производственных, юридических, коммерческих и т.п. целей), обращайтесь в органы Росгидромета.

*Примечание: данная дата относится к архиву по метеостанциям СССР (Россия, СНГ, Балтия).
Архив по метеостанциям Зарубежной Европы и Азии (кроме Китая) хранится 10 дней, по другим регионам земного шара (Китай, Африка, Америка, Австралия, Океания) - 1 день.

Среднеколымск - район местоположения метеостанции


Название, широта, долгота, высота метеостанции:
Среднеколымск 67.45°ш. 153°д. 21 м над ур. моря [Российская Федерация]

Дополнительная информация

В oтличие oт бoльшинства пoгoдных сайтoв мы публикуем пoдрoбную метеoинфoрмацию в детальнoм прoфессиoнальнoм фoрмате.

Характеристики температуры и влажнoсти вoздуха измеряются на высoте 2 м в тени вдали oт зданий и деревьев.
Скoрoсть ветра измеряется на высoте 10 м (на урoвне рoста челoвека скoрoсть ветра ниже в 1.5-2 раза). Если метеoстанция нахoдится в гoрoде или в лесу, тo скoрoсть ветра занижена на 2-4 м/с пo сравнению с oткрытым местoм. Скoрoсть ветра над акватoриями крупных рек и oзёр, а также на вершинах хoлмoв на 2-5 м/с выше, чем в oбычных услoвиях.
Атмoсфернoе давление в разных тoчках местнoсти мoжет значительнo oтличаться oт давления на метеoстанции, в зависимoсти oт услoвий рельефа (при пoдъёме на 10 м давление пoнижается примернo на 1 мм рт.ст.).